EW7448 Weather Reports


time (UTC)temp
F
wind
direction
speed
knots
gust
knots
rain 1hr
in
rain 24hr
in
rain mn
in
humidity
%
barometer
mb
20260506100054 66 115 0.0 0.0 0.00 0.00 0.00 96 1013.9
20260506094550 66 115 0.0 0.0 0.00 0.00 0.00 96 1013.8
20260506093048 66 115 0.0 0.0 0.00 0.00 0.00 96 1013.7
20260506091550 66 115 0.0 0.0 0.00 0.00 0.00 96 1013.6
20260506090047 66 115 0.0 0.0 0.00 0.00 0.00 96 1013.4
20260506084546 66 115 0.0 0.0 0.00 0.00 0.00 96 1013.4
20260506083049 66 115 0.0 0.0 0.00 0.00 0.00 96 1013.5
20260506081542 66 115 0.0 0.0 0.00 0.00 0.00 95 1013.6
20260506073040 67 115 0.0 0.0 0.00 0.00 0.00 94 1013.6
20260506071538 67 115 0.0 0.0 0.00 0.00 0.00 95 1013.9
20260506061532 69 115 0.0 0.0 0.00 0.00 0.00 94 1014.1
20260506044519 71 115 0.0 0.0 0.00 0.00 0.00 88 1014.3
20260506043016 71 115 0.0 0.0 0.00 0.00 0.00 87 1014.4
20260506041513 72 115 0.0 0.9 0.00 0.00 0.00 87 1014.5
20260506040016 72 115 0.0 0.0 0.00 0.00 0.00 86 1014.6
20260506034510 72 115 0.0 0.0 0.00 0.00 0.00 84 1014.7
20260506033008 73 115 0.0 0.9 0.00 0.00 0.00 83 1014.8
20260506031507 73 115 0.0 0.9 0.00 0.00 0.00 83 1014.8
20260506030007 73 115 0.0 0.9 0.00 0.00 0.00 83 1014.7
20260506024507 73 115 0.0 0.9 0.00 0.00 0.00 83 1014.5
20260506023006 73 104 0.0 0.9 0.00 0.00 0.00 83 1014.3
20260506021509 74 92 0.0 1.7 0.00 0.00 0.00 82 1014.4
20260506020004 74 60 0.0 1.7 0.00 0.00 0.00 82 1014.3
20260506014504 74 146 0.0 0.9 0.00 0.00 0.00 81 1014.2
20260506013003 74 169 0.0 0.0 0.00 0.00 0.00 79 1013.9
20260506011502 74 69 0.0 0.9 0.00 0.00 0.00 79 1013.8
20260506010002 74 41 0.0 0.9 0.00 0.00 0.00 79 1013.5
20260506004501 74 40 0.0 1.7 0.00 0.00 0.00 78 1013.4
20260506003001 74 39 0.0 1.7 0.00 0.00 0.00 79 1013.2
20260506001600 75 37 0.0 1.7 0.00 0.00 0.00 78 1013.2
20260505234610 76 62 0.0 4.3 0.00 0.00 0.00 75 1013.1
20260505233059 77 101 0.0 3.5 0.00 0.00 0.00 74 1013.1
20260505231558 77 30 0.9 6.1 0.00 0.00 0.00 73 1013.3
20260505224658 78 187 0.9 9.6 0.00 0.00 0.00 74 1013.6
20260505223056 78 120 1.7 7.8 0.00 0.00 0.00 73 1013.6
20260505221555 79 16 0.0 8.7 0.00 0.00 0.00 69 1013.4
20260505220054 80 173 0.9 6.1 0.00 0.00 0.00 69 1013.5
20260505214613 79 9 2.6 7.8 0.00 0.00 0.00 71 1013.2
20260505213102 80 68 2.6 7.8 0.00 0.00 0.00 69 1013.2
20260505211552 80 56 3.5 11.3 0.00 0.00 0.00 66 1013.3
20260505210057 81 146 3.5 9.6 0.00 0.00 0.00 65 1013.2
20260505204557 81 143 0.9 9.6 0.00 0.00 0.00 67 1013.1
20260505203054 82 210 0.9 10.4 0.00 0.00 0.00 63 1013.2
20260505201553 83 164 1.7 6.1 0.00 0.00 0.00 65 1013.2
20260505200059 82 57 1.7 7.8 0.00 0.00 0.00 65 1013.3
20260505194549 83 233 2.6 7.0 0.00 0.00 0.00 64 1013.6
20260505193049 82 43 2.6 7.8 0.00 0.00 0.00 66 1013.8
20260505191545 81 35 2.6 10.4 0.00 0.00 0.00 65 1013.9
20260505190042 82 123 0.9 11.3 0.00 0.00 0.00 64 1014.1
20260505184541 82 20 2.6 7.0 0.00 0.00 0.00 64 1014.4
20260505183040 81 146 0.9 11.3 0.00 0.00 0.00 65 1014.3
20260505181541 81 104 3.5 8.7 0.00 0.00 0.00 65 1014.4
20260505180100 82 70 1.7 8.7 0.00 0.00 0.00 65 1014.4
20260505174556 83 70 0.9 5.2 0.00 0.00 0.00 66 1014.6
20260505173044 81 93 0.9 8.7 0.00 0.00 0.00 70 1014.6
20260505171537 81 36 2.6 7.0 0.00 0.00 0.00 63 1014.6
20260505170036 82 174 0.9 6.1 0.00 0.00 0.00 64 1014.6
20260505164535 83 96 1.7 9.6 0.00 0.00 0.00 65 1014.4
20260505163034 82 49 0.0 7.0 0.00 0.00 0.00 68 1014.8
20260505161530 82 152 0.0 7.8 0.00 0.00 0.00 68 1014.6
20260505153028 80 68 0.9 6.1 0.00 0.00 0.00 74 1014.7
20260505151523 80 56 1.7 7.0 0.00 0.00 0.00 72 1014.6
20260505124506 77 108 0.0 7.0 0.00 0.00 0.00 77 1013.9
20260505123002 76 163 1.7 7.0 0.00 0.00 0.00 78 1014.1
20260505121558 75 44 1.7 8.7 0.00 0.00 0.00 81 1014.2
20260505120053 73 63 0.0 1.7 0.00 0.00 0.00 84 1013.9
20260505114550 72 41 0.0 3.5 0.00 0.00 0.00 86 1013.5
20260505113051 70 59 0.0 1.7 0.00 0.00 0.00 89 1013.5
20260505111546 68 133 0.0 0.9 0.00 0.00 0.00 92 1013.2
20260505101544 65 149 0.0 0.0 0.00 0.00 0.00 94 1012.7